Time,TemperatureF,DewpointF,PressureIn,WindDirection,WindDirectionDegrees,WindSpeedMPH,WindSpeedGustMPH,Humidity,HourlyPrecipIn,Conditions,Clouds,dailyrainin,SoftwareType,DateUTC
2013-05-16 00:01:00,70.4,60.5,30.06,WSW,257,0.0,3.0,71,0.00,,,0.00,WeatherCatV1.02B3,2013-05-16 05:01:00,
2013-05-16 00:06:00,70.4,60.9,30.06,West,273,1.0,1.0,72,0.00,,,0.00,WeatherCatV1.02B3,2013-05-16 05:06:00,
2013-05-16 00:11:00,70.3,60.8,30.06,West,269,0.0,1.0,72,0.00,,,0.00,WeatherCatV1.02B3,2013-05-16 05:11:00,
2013-05-16 00:16:00,70.2,60.7,30.06,West,267,0.0,0.0,72,0.00,,,0.00,WeatherCatV1.02B3,2013-05-16 05:16:00,
2013-05-16 00:21:00,70.1,61.0,30.07,West,275,0.0,0.0,73,0.00,,,0.00,WeatherCatV1.02B3,2013-05-16 05:21:00,
2013-05-16 00:26:00,70.0,60.9,30.07,West,275,0.0,2.0,73,0.00,,,0.00,WeatherCatV1.02B3,2013-05-16 05:26:00,
2013-05-16 00:31:00,69.8,61.1,30.07,West,275,0.0,0.0,74,0.00,,,0.00,WeatherCatV1.02B3,2013-05-16 05:31:00,
2013-05-16 00:36:00,69.6,60.9,30.07,West,275,0.0,2.0,74,0.00,,,0.00,WeatherCatV1.02B3,2013-05-16 05:36:00,
2013-05-16 00:37:00,69.5,60.8,30.07,West,275,0.0,0.0,74,0.00,,,0.00,WeatherCatV1.02B3,2013-05-16 05:37:00,
2013-05-16 00:42:00,69.3,60.6,30.07,West,275,0.0,1.0,74,0.00,,,0.00,WeatherCatV1.02B3,2013-05-16 05:42:00,
2013-05-16 00:47:00,69.2,60.9,30.07,West,275,0.0,1.0,75,0.00,,,0.00,WeatherCatV1.02B3,2013-05-16 05:47:00,
2013-05-16 00:52:00,69.0,60.7,30.06,West,275,1.0,1.0,75,0.00,,,0.00,WeatherCatV1.02B3,2013-05-16 05:52:00,
2013-05-16 00:57:00,68.8,60.5,30.05,West,271,3.0,3.0,75,0.00,,,0.00,WeatherCatV1.02B3,2013-05-16 05:57:00,
2013-05-16 01:02:00,68.5,60.6,30.05,WSW,254,0.0,1.0,76,0.00,,,0.00,WeatherCatV1.02B3,2013-05-16 06:02:00,
2013-05-16 01:07:00,68.3,60.4,30.05,WSW,254,0.0,1.0,76,0.00,,,0.00,WeatherCatV1.02B3,2013-05-16 06:07:00,
2013-05-16 01:12:00,68.1,60.6,30.05,WSW,254,0.0,0.0,77,0.00,,,0.00,WeatherCatV1.02B3,2013-05-16 06:12:00,
2013-05-16 01:17:00,67.9,60.4,30.04,West,259,1.0,2.0,77,0.00,,,0.00,WeatherCatV1.02B3,2013-05-16 06:17:00,
2013-05-16 01:22:00,67.7,60.2,30.05,West,259,0.0,2.0,77,0.00,,,0.00,WeatherCatV1.02B3,2013-05-16 06:22:00,
2013-05-16 01:27:00,67.5,60.4,30.05,West,259,0.0,0.0,78,0.00,,,0.00,WeatherCatV1.02B3,2013-05-16 06:27:00,
2013-05-16 01:32:00,67.3,60.2,30.05,West,259,1.0,1.0,78,0.00,,,0.00,WeatherCatV1.02B3,2013-05-16 06:32:00,
2013-05-16 01:37:00,67.1,60.0,30.04,West,259,0.0,0.0,78,0.00,,,0.00,WeatherCatV1.02B3,2013-05-16 06:37:00,
2013-05-16 01:42:00,66.8,60.1,30.03,West,259,1.0,3.0,79,0.00,,,0.00,WeatherCatV1.02B3,2013-05-16 06:42:00,
2013-05-16 01:47:00,66.7,60.0,30.03,West,259,0.0,0.0,79,0.00,,,0.00,WeatherCatV1.02B3,2013-05-16 06:47:00,
2013-05-16 01:52:00,66.6,59.9,30.04,West,263,0.0,0.0,79,0.00,,,0.00,WeatherCatV1.02B3,2013-05-16 06:52:00,
2013-05-16 01:57:00,66.4,60.0,30.04,West,263,0.0,0.0,80,0.00,,,0.00,WeatherCatV1.02B3,2013-05-16 06:57:00,
2013-05-16 02:02:00,66.3,59.9,30.04,West,263,0.0,0.0,80,0.00,,,0.00,WeatherCatV1.02B3,2013-05-16 07:02:00,
2013-05-16 02:07:00,66.1,59.7,30.04,West,263,0.0,0.0,80,0.00,,,0.00,WeatherCatV1.02B3,2013-05-16 07:07:00,
2013-05-16 02:12:00,66.0,59.6,30.03,West,263,0.0,0.0,80,0.00,,,0.00,WeatherCatV1.02B3,2013-05-16 07:12:00,
2013-05-16 02:17:00,65.8,59.8,30.03,West,269,0.0,3.0,81,0.00,,,0.00,WeatherCatV1.02B3,2013-05-16 07:17:00,
2013-05-16 02:22:00,65.7,59.7,30.03,West,271,0.0,0.0,81,0.00,,,0.00,WeatherCatV1.02B3,2013-05-16 07:22:00,
2013-05-16 02:27:00,65.6,59.6,30.03,West,271,0.0,0.0,81,0.00,,,0.00,WeatherCatV1.02B3,2013-05-16 07:27:00,
2013-05-16 02:32:00,65.5,59.5,30.03,West,271,0.0,0.0,81,0.00,,,0.00,WeatherCatV1.02B3,2013-05-16 07:32:00,
2013-05-16 02:38:00,65.3,59.7,30.02,West,271,0.0,0.0,82,0.00,,,0.00,WeatherCatV1.02B3,2013-05-16 07:38:00,
2013-05-16 02:43:00,65.1,59.5,30.02,West,271,0.0,0.0,82,0.00,,,0.00,WeatherCatV1.02B3,2013-05-16 07:43:00,
2013-05-16 02:48:00,65.0,59.4,30.03,West,271,0.0,0.0,82,0.00,,,0.00,WeatherCatV1.02B3,2013-05-16 07:48:00,
2013-05-16 02:53:00,64.9,59.6,30.03,West,271,0.0,0.0,83,0.00,,,0.00,WeatherCatV1.02B3,2013-05-16 07:53:00,
2013-05-16 02:58:00,64.8,59.5,30.03,West,271,1.0,1.0,83,0.00,,,0.00,WeatherCatV1.02B3,2013-05-16 07:58:00,
2013-05-16 03:03:00,64.7,59.4,30.02,West,269,0.0,1.0,83,0.00,,,0.00,WeatherCatV1.02B3,2013-05-16 08:03:00,
2013-05-16 03:08:00,64.6,59.3,30.02,WSW,250,0.0,3.0,83,0.00,,,0.00,WeatherCatV1.02B3,2013-05-16 08:08:00,
2013-05-16 03:13:00,64.5,59.2,30.02,WNW,283,0.0,1.0,83,0.00,,,0.00,WeatherCatV1.02B3,2013-05-16 08:13:00,
2013-05-16 03:18:00,64.5,59.2,30.02,West,272,1.0,1.0,83,0.00,,,0.00,WeatherCatV1.02B3,2013-05-16 08:18:00,
2013-05-16 03:23:00,64.4,59.1,30.02,West,272,0.0,0.0,83,0.00,,,0.00,WeatherCatV1.02B3,2013-05-16 08:23:00,
2013-05-16 03:28:00,64.3,59.0,30.03,West,267,0.0,1.0,83,0.00,,,0.00,WeatherCatV1.02B3,2013-05-16 08:28:00,
2013-05-16 03:33:00,64.2,58.9,30.03,West,273,0.0,1.0,83,0.00,,,0.00,WeatherCatV1.02B3,2013-05-16 08:33:00,
2013-05-16 03:38:00,64.2,58.9,30.03,West,271,1.0,1.0,83,0.00,,,0.00,WeatherCatV1.02B3,2013-05-16 08:38:00,
2013-05-16 03:43:00,64.2,58.9,30.03,West,259,0.0,1.0,83,0.00,,,0.00,WeatherCatV1.02B3,2013-05-16 08:43:00,
2013-05-16 03:48:00,64.2,58.9,30.02,WSW,239,0.0,1.0,83,0.00,,,0.00,WeatherCatV1.02B3,2013-05-16 08:48:00,
2013-05-16 03:53:00,64.1,58.8,30.02,West,272,0.0,1.0,83,0.00,,,0.00,WeatherCatV1.02B3,2013-05-16 08:53:00,
2013-05-16 03:58:00,64.1,58.8,30.02,West,269,0.0,1.0,83,0.00,,,0.00,WeatherCatV1.02B3,2013-05-16 08:58:00,
2013-05-16 04:03:00,64.1,58.8,30.02,WNW,287,0.0,0.0,83,0.00,,,0.00,WeatherCatV1.02B3,2013-05-16 09:03:00,
2013-05-16 04:08:00,64.1,58.8,30.02,West,277,0.0,2.0,83,0.00,,,0.00,WeatherCatV1.02B3,2013-05-16 09:08:00,
2013-05-16 04:13:00,64.0,58.7,30.02,West,275,0.0,1.0,83,0.00,,,0.00,WeatherCatV1.02B3,2013-05-16 09:13:00,
2013-05-16 04:18:00,63.9,58.6,30.02,West,274,0.0,2.0,83,0.00,,,0.00,WeatherCatV1.02B3,2013-05-16 09:18:00,
2013-05-16 04:23:00,63.9,58.6,30.02,West,270,0.0,0.0,83,0.00,,,0.00,WeatherCatV1.02B3,2013-05-16 09:23:00,
2013-05-16 04:28:00,63.8,58.5,30.02,West,269,0.0,2.0,83,0.00,,,0.00,WeatherCatV1.02B3,2013-05-16 09:28:00,
2013-05-16 04:33:00,63.7,58.4,30.02,West,269,3.0,4.0,83,0.00,,,0.00,WeatherCatV1.02B3,2013-05-16 09:33:00,
2013-05-16 04:38:00,63.7,58.8,30.02,West,269,1.0,1.0,84,0.00,,,0.00,WeatherCatV1.02B3,2013-05-16 09:38:00,
2013-05-16 04:43:00,63.6,58.7,30.02,West,266,0.0,0.0,84,0.00,,,0.00,WeatherCatV1.02B3,2013-05-16 09:43:00,
2013-05-16 04:48:00,63.5,58.6,30.02,WNW,291,0.0,2.0,84,0.00,,,0.00,WeatherCatV1.02B3,2013-05-16 09:48:00,
2013-05-16 04:53:00,63.5,58.6,30.01,West,261,3.0,3.0,84,0.00,,,0.00,WeatherCatV1.02B3,2013-05-16 09:53:00,
2013-05-16 04:58:00,63.4,58.5,30.02,WSW,256,1.0,1.0,84,0.00,,,0.00,WeatherCatV1.02B3,2013-05-16 09:58:00,
2013-05-16 05:03:00,63.4,58.5,30.02,West,267,0.0,0.0,84,0.00,,,0.00,WeatherCatV1.02B3,2013-05-16 10:03:00,
2013-05-16 05:08:00,63.3,58.7,30.02,West,271,1.0,1.0,85,0.00,,,0.00,WeatherCatV1.02B3,2013-05-16 10:08:00,
2013-05-16 05:13:00,63.2,58.6,30.02,West,263,0.0,3.0,85,0.00,,,0.00,WeatherCatV1.02B3,2013-05-16 10:13:00,
2013-05-16 05:18:00,63.2,58.6,30.01,WSW,258,2.0,3.0,85,0.00,,,0.00,WeatherCatV1.02B3,2013-05-16 10:18:00,
2013-05-16 05:23:00,63.2,58.6,30.01,West,259,0.0,3.0,85,0.00,,,0.00,WeatherCatV1.02B3,2013-05-16 10:23:00,
2013-05-16 05:28:00,63.2,58.6,30.01,WSW,246,0.0,3.0,85,0.00,,,0.00,WeatherCatV1.02B3,2013-05-16 10:28:00,
2013-05-16 05:33:00,63.1,58.5,30.01,WSW,254,0.0,2.0,85,0.00,,,0.00,WeatherCatV1.02B3,2013-05-16 10:33:00,
2013-05-16 05:38:00,63.0,58.4,30.01,WSW,257,1.0,1.0,85,0.00,,,0.00,WeatherCatV1.02B3,2013-05-16 10:38:00,
2013-05-16 05:43:00,62.9,58.3,30.02,WSW,257,0.0,0.0,85,0.00,,,0.00,WeatherCatV1.02B3,2013-05-16 10:43:00,
2013-05-16 05:48:00,62.9,58.6,30.02,WSW,257,0.0,0.0,86,0.00,,,0.00,WeatherCatV1.02B3,2013-05-16 10:48:00,
2013-05-16 05:53:00,62.8,58.5,30.02,WSW,257,0.0,1.0,86,0.00,,,0.00,WeatherCatV1.02B3,2013-05-16 10:53:00,
2013-05-16 05:58:00,62.7,58.4,30.02,NW,309,0.0,0.0,86,0.00,,,0.00,WeatherCatV1.02B3,2013-05-16 10:58:00,
2013-05-16 06:03:00,62.6,58.3,30.02,NW,309,0.0,1.0,86,0.00,,,0.00,WeatherCatV1.02B3,2013-05-16 11:03:00,
2013-05-16 06:08:00,62.6,58.7,30.02,NW,309,0.0,0.0,87,0.00,,,0.00,WeatherCatV1.02B3,2013-05-16 11:08:00,
2013-05-16 06:13:00,62.5,58.6,30.02,NW,309,0.0,0.0,87,0.00,,,0.00,WeatherCatV1.02B3,2013-05-16 11:13:00,
2013-05-16 06:18:00,62.5,58.6,30.02,NW,309,0.0,2.0,87,0.00,,,0.00,WeatherCatV1.02B3,2013-05-16 11:18:00,
2013-05-16 06:23:00,62.5,58.6,30.03,NW,306,0.0,0.0,87,0.00,,,0.00,WeatherCatV1.02B3,2013-05-16 11:23:00,
2013-05-16 06:28:00,62.5,58.9,30.03,NW,306,0.0,1.0,88,0.00,,,0.00,WeatherCatV1.02B3,2013-05-16 11:28:00,
2013-05-16 06:33:00,62.6,59.0,30.03,NW,306,0.0,0.0,88,0.00,,,0.00,WeatherCatV1.02B3,2013-05-16 11:33:00,
2013-05-16 06:38:00,62.6,59.0,30.03,WSW,239,0.0,0.0,88,0.00,,,0.00,WeatherCatV1.02B3,2013-05-16 11:38:00,
2013-05-16 06:43:00,62.7,59.1,30.03,West,281,0.0,0.0,88,0.00,,,0.00,WeatherCatV1.02B3,2013-05-16 11:43:00,
2013-05-16 06:48:00,62.7,59.1,30.03,WSW,244,1.0,4.0,88,0.00,,,0.00,WeatherCatV1.02B3,2013-05-16 11:48:00,
2013-05-16 06:53:00,62.8,59.2,30.03,WSW,244,0.0,2.0,88,0.00,,,0.00,WeatherCatV1.02B3,2013-05-16 11:53:00,
2013-05-16 06:58:00,62.8,59.2,30.03,WSW,244,0.0,0.0,88,0.00,,,0.00,WeatherCatV1.02B3,2013-05-16 11:58:00,
2013-05-16 07:03:00,62.9,59.3,30.03,West,260,1.0,2.0,88,0.00,,,0.00,WeatherCatV1.02B3,2013-05-16 12:03:00,
2013-05-16 07:08:00,63.1,59.8,30.03,West,270,1.0,2.0,89,0.00,,,0.00,WeatherCatV1.02B3,2013-05-16 12:08:00,
2013-05-16 07:13:00,63.2,59.9,30.04,West,269,0.0,1.0,89,0.00,,,0.00,WeatherCatV1.02B3,2013-05-16 12:13:00,
2013-05-16 07:18:00,63.4,60.1,30.03,West,265,0.0,3.0,89,0.00,,,0.00,WeatherCatV1.02B3,2013-05-16 12:18:00,
2013-05-16 07:23:00,63.6,60.3,30.04,WSW,257,0.0,4.0,89,0.00,,,0.00,WeatherCatV1.02B3,2013-05-16 12:23:00,
2013-05-16 07:28:00,63.9,60.6,30.04,West,275,0.0,2.0,89,0.00,,,0.00,WeatherCatV1.02B3,2013-05-16 12:28:00,
2013-05-16 07:33:00,64.2,60.9,30.04,WSW,258,1.0,5.0,89,0.00,,,0.00,WeatherCatV1.02B3,2013-05-16 12:33:00,
2013-05-16 07:38:00,64.5,61.2,30.04,West,272,0.0,6.0,89,0.00,,,0.00,WeatherCatV1.02B3,2013-05-16 12:38:00,
2013-05-16 07:43:00,64.9,61.3,30.04,West,271,0.0,2.0,88,0.00,,,0.00,WeatherCatV1.02B3,2013-05-16 12:43:00,
2013-05-16 07:48:00,65.2,61.5,30.04,West,275,1.0,2.0,88,0.00,,,0.00,WeatherCatV1.02B3,2013-05-16 12:48:00,
2013-05-16 07:53:00,65.7,62.0,30.04,West,269,0.0,3.0,88,0.00,,,0.00,WeatherCatV1.02B3,2013-05-16 12:53:00,
2013-05-16 07:58:00,66.1,62.4,30.05,WNW,296,0.0,2.0,88,0.00,,,0.00,WeatherCatV1.02B3,2013-05-16 12:58:00,
2013-05-16 08:03:00,66.5,62.5,30.05,WNW,297,0.0,0.0,87,0.00,,,0.00,WeatherCatV1.02B3,2013-05-16 13:03:00,
2013-05-16 08:08:00,66.7,62.4,30.05,West,275,3.0,3.0,86,0.00,,,0.00,WeatherCatV1.02B3,2013-05-16 13:08:00,
2013-05-16 08:13:00,66.9,62.6,30.05,West,273,1.0,2.0,86,0.00,,,0.00,WeatherCatV1.02B3,2013-05-16 13:13:00,
2013-05-16 08:18:00,67.2,62.9,30.05,West,275,4.0,4.0,86,0.00,,,0.00,WeatherCatV1.02B3,2013-05-16 13:18:00,
2013-05-16 08:23:00,67.3,63.0,30.05,West,274,0.0,1.0,86,0.00,,,0.00,WeatherCatV1.02B3,2013-05-16 13:23:00,
2013-05-16 08:28:00,67.6,63.3,30.05,WNW,284,0.0,3.0,86,0.00,,,0.00,WeatherCatV1.02B3,2013-05-16 13:28:00,
2013-05-16 08:33:00,67.8,63.5,30.05,West,274,5.0,5.0,86,0.00,,,0.00,WeatherCatV1.02B3,2013-05-16 13:33:00,
2013-05-16 08:38:00,68.1,63.7,30.05,West,269,0.0,2.0,86,0.00,,,0.00,WeatherCatV1.02B3,2013-05-16 13:38:00,
2013-05-16 08:43:00,68.5,63.8,30.05,West,270,0.0,4.0,85,0.00,,,0.00,WeatherCatV1.02B3,2013-05-16 13:43:00,
2013-05-16 08:48:00,68.8,63.8,30.05,WNW,298,0.0,7.0,84,0.00,,,0.00,WeatherCatV1.02B3,2013-05-16 13:48:00,
2013-05-16 08:53:00,69.3,64.2,30.05,WSW,238,0.0,3.0,84,0.00,,,0.00,WeatherCatV1.02B3,2013-05-16 13:53:00,
2013-05-16 08:58:00,69.8,64.4,30.05,West,262,2.0,4.0,83,0.00,,,0.00,WeatherCatV1.02B3,2013-05-16 13:58:00,
2013-05-16 09:03:00,70.1,64.3,30.05,WNW,295,0.0,1.0,82,0.00,,,0.00,WeatherCatV1.02B3,2013-05-16 14:03:00,
2013-05-16 09:08:00,70.4,65.0,30.04,WNW,294,0.0,0.0,83,0.00,,,0.00,WeatherCatV1.02B3,2013-05-16 14:08:00,
2013-05-16 09:13:00,70.7,64.9,30.05,West,264,1.0,5.0,82,0.00,,,0.00,WeatherCatV1.02B3,2013-05-16 14:13:00,
2013-05-16 09:18:00,71.1,65.0,30.05,WNW,303,1.0,6.0,81,0.00,,,0.00,WeatherCatV1.02B3,2013-05-16 14:18:00,
2013-05-16 09:23:00,71.1,65.0,30.05,SW,221,0.0,4.0,81,0.00,,,0.00,WeatherCatV1.02B3,2013-05-16 14:23:00,
2013-05-16 09:28:00,71.3,65.2,30.05,WNW,294,2.0,3.0,81,0.00,,,0.00,WeatherCatV1.02B3,2013-05-16 14:28:00,
2013-05-16 09:33:00,71.4,65.3,30.05,WNW,286,0.0,6.0,81,0.00,,,0.00,WeatherCatV1.02B3,2013-05-16 14:33:00,
2013-05-16 09:38:00,71.3,65.9,30.05,West,262,1.0,3.0,83,0.00,,,0.00,WeatherCatV1.02B3,2013-05-16 14:38:00,
2013-05-16 09:43:00,71.2,66.1,30.04,West,267,0.0,0.0,84,0.00,,,0.00,WeatherCatV1.02B3,2013-05-16 14:43:00,
2013-05-16 09:48:00,71.3,66.2,30.04,West,281,1.0,3.0,84,0.00,,,0.00,WeatherCatV1.02B3,2013-05-16 14:48:00,
2013-05-16 09:53:00,71.3,65.9,30.04,West,274,0.0,4.0,83,0.00,,,0.00,WeatherCatV1.02B3,2013-05-16 14:53:00,
2013-05-16 09:58:00,71.6,65.8,30.04,West,264,2.0,7.0,82,0.00,,,0.00,WeatherCatV1.02B3,2013-05-16 14:58:00,
2013-05-16 10:03:00,71.8,65.3,30.04,West,264,0.0,3.0,80,0.00,,,0.00,WeatherCatV1.02B3,2013-05-16 15:03:00,
2013-05-16 10:08:00,72.1,65.2,30.03,West,259,1.0,4.0,79,0.00,,,0.00,WeatherCatV1.02B3,2013-05-16 15:08:00,
2013-05-16 10:13:00,72.1,64.1,30.03,WSW,252,1.0,3.0,76,0.00,,,0.00,WeatherCatV1.02B3,2013-05-16 15:13:00,
2013-05-16 10:18:00,72.2,64.6,30.04,WSW,251,0.0,3.0,77,0.00,,,0.00,WeatherCatV1.02B3,2013-05-16 15:18:00,
2013-05-16 10:23:00,72.6,65.0,30.03,NW,307,2.0,4.0,77,0.00,,,0.00,WeatherCatV1.02B3,2013-05-16 15:23:00,
2013-05-16 10:28:00,73.1,65.1,30.03,WSW,248,3.0,8.0,76,0.00,,,0.00,WeatherCatV1.02B3,2013-05-16 15:28:00,
2013-05-16 10:33:00,73.4,65.0,30.03,West,271,0.0,8.0,75,0.00,,,0.00,WeatherCatV1.02B3,2013-05-16 15:33:00,
2013-05-16 10:38:00,73.4,65.0,30.03,WNW,282,3.0,6.0,75,0.00,,,0.00,WeatherCatV1.02B3,2013-05-16 15:38:00,
2013-05-16 10:43:00,73.7,65.7,30.03,WNW,284,0.0,10.0,76,0.00,,,0.00,WeatherCatV1.02B3,2013-05-16 15:43:00,
2013-05-16 10:48:00,73.9,65.5,30.03,WNW,285,0.0,4.0,75,0.00,,,0.00,WeatherCatV1.02B3,2013-05-16 15:48:00,
2013-05-16 10:53:00,73.8,65.4,30.03,WNW,282,1.0,4.0,75,0.00,,,0.00,WeatherCatV1.02B3,2013-05-16 15:53:00,
2013-05-16 10:58:00,74.1,66.0,30.02,SW,234,10.0,10.0,76,0.00,,,0.00,WeatherCatV1.02B3,2013-05-16 15:58:00,
2013-05-16 11:03:00,74.6,65.7,30.02,WSW,245,3.0,11.0,74,0.00,,,0.00,WeatherCatV1.02B3,2013-05-16 16:03:00,
2013-05-16 11:08:00,74.7,65.8,30.02,WNW,296,1.0,3.0,74,0.00,,,0.00,WeatherCatV1.02B3,2013-05-16 16:08:00,
2013-05-16 11:13:00,74.7,65.8,30.02,West,271,3.0,6.0,74,0.00,,,0.00,WeatherCatV1.02B3,2013-05-16 16:13:00,
2013-05-16 11:18:00,74.7,66.2,30.02,WSW,242,6.0,6.0,75,0.00,,,0.00,WeatherCatV1.02B3,2013-05-16 16:18:00,
2013-05-16 11:23:00,74.9,66.4,30.02,SW,229,2.0,6.0,75,0.00,,,0.00,WeatherCatV1.02B3,2013-05-16 16:23:00,
2013-05-16 11:28:00,75.2,65.9,30.01,SW,236,4.0,9.0,73,0.00,,,0.00,WeatherCatV1.02B3,2013-05-16 16:28:00,
2013-05-16 11:33:00,75.4,65.7,30.01,SW,235,5.0,7.0,72,0.00,,,0.00,WeatherCatV1.02B3,2013-05-16 16:33:00,
2013-05-16 11:38:00,75.3,64.8,30.01,WSW,248,4.0,8.0,70,0.00,,,0.00,WeatherCatV1.02B3,2013-05-16 16:38:00,
2013-05-16 11:43:00,75.2,65.1,30.01,WSW,257,5.0,11.0,71,0.00,,,0.00,WeatherCatV1.02B3,2013-05-16 16:43:00,
2013-05-16 11:48:00,75.2,65.1,30.00,West,281,4.0,5.0,71,0.00,,,0.00,WeatherCatV1.02B3,2013-05-16 16:48:00,
2013-05-16 11:53:00,75.4,64.9,30.00,WSW,245,1.0,8.0,70,0.00,,,0.00,WeatherCatV1.02B3,2013-05-16 16:53:00,
2013-05-16 11:58:00,75.7,65.2,30.00,West,274,0.0,5.0,70,0.00,,,0.00,WeatherCatV1.02B3,2013-05-16 16:58:00,
2013-05-16 12:03:00,76.1,65.6,29.99,WSW,237,5.0,6.0,70,0.00,,,0.00,WeatherCatV1.02B3,2013-05-16 17:03:00,
2013-05-16 12:08:00,76.4,65.5,29.99,WSW,238,2.0,6.0,69,0.00,,,0.00,WeatherCatV1.02B3,2013-05-16 17:08:00,
2013-05-16 12:13:00,76.6,65.2,29.99,SSW,197,4.0,8.0,68,0.00,,,0.00,WeatherCatV1.02B3,2013-05-16 17:13:00,
2013-05-16 12:18:00,76.5,63.4,29.99,WSW,247,2.0,7.0,64,0.00,,,0.00,WeatherCatV1.02B3,2013-05-16 17:18:00,
2013-05-16 12:23:00,76.6,63.9,29.98,WSW,257,0.0,5.0,65,0.00,,,0.00,WeatherCatV1.02B3,2013-05-16 17:23:00,
2013-05-16 12:28:00,76.7,63.6,29.98,WSW,257,3.0,12.0,64,0.00,,,0.00,WeatherCatV1.02B3,2013-05-16 17:28:00,
2013-05-16 12:33:00,76.8,65.0,29.99,West,265,1.0,1.0,67,0.00,,,0.00,WeatherCatV1.02B3,2013-05-16 17:33:00,
2013-05-16 12:38:00,77.2,64.9,29.99,SW,235,3.0,8.0,66,0.00,,,0.00,WeatherCatV1.02B3,2013-05-16 17:38:00,
2013-05-16 12:43:00,77.7,65.0,29.99,West,265,6.0,8.0,65,0.00,,,0.00,WeatherCatV1.02B3,2013-05-16 17:43:00,
2013-05-16 12:44:00,77.7,65.0,29.98,WSW,241,2.0,8.0,65,0.00,,,0.00,WeatherCatV1.02B3,2013-05-16 17:44:00,
2013-05-16 12:49:00,78.3,64.6,29.98,WSW,239,0.0,9.0,63,0.00,,,0.00,WeatherCatV1.02B3,2013-05-16 17:49:00,
2013-05-16 12:54:00,78.6,64.0,29.97,SW,231,3.0,3.0,61,0.00,,,0.00,WeatherCatV1.02B3,2013-05-16 17:54:00,
2013-05-16 12:59:00,79.1,64.9,29.97,West,269,0.0,2.0,62,0.00,,,0.00,WeatherCatV1.02B3,2013-05-16 17:59:00,
2013-05-16 13:04:00,79.7,65.5,29.97,WSW,251,0.0,3.0,62,0.00,,,0.00,WeatherCatV1.02B3,2013-05-16 18:04:00,
2013-05-16 13:09:00,80.2,65.0,29.97,West,263,2.0,7.0,60,0.00,,,0.00,WeatherCatV1.02B3,2013-05-16 18:09:00,
2013-05-16 13:14:00,80.4,64.7,29.98,WNW,291,0.0,2.0,59,0.00,,,0.00,WeatherCatV1.02B3,2013-05-16 18:14:00,
2013-05-16 13:19:00,80.9,64.2,29.97,WNW,287,0.0,3.0,57,0.00,,,0.00,WeatherCatV1.02B3,2013-05-16 18:19:00,
2013-05-16 13:24:00,81.2,64.0,29.98,NW,319,5.0,5.0,56,0.00,,,0.00,WeatherCatV1.02B3,2013-05-16 18:24:00,
2013-05-16 13:29:00,81.1,63.9,29.98,West,271,0.0,3.0,56,0.00,,,0.00,WeatherCatV1.02B3,2013-05-16 18:29:00,
2013-05-16 13:34:00,81.4,64.2,29.98,West,278,0.0,5.0,56,0.00,,,0.00,WeatherCatV1.02B3,2013-05-16 18:34:00,
2013-05-16 13:39:00,81.6,64.4,29.98,WNW,296,2.0,5.0,56,0.00,,,0.00,WeatherCatV1.02B3,2013-05-16 18:39:00,
2013-05-16 13:44:00,81.2,63.5,29.98,West,264,0.0,2.0,55,0.00,,,0.00,WeatherCatV1.02B3,2013-05-16 18:44:00,
2013-05-16 13:49:00,80.8,62.6,29.98,West,259,3.0,9.0,54,0.00,,,0.00,WeatherCatV1.02B3,2013-05-16 18:49:00,
2013-05-16 13:54:00,80.2,63.1,29.98,West,268,3.0,4.0,56,0.00,,,0.00,WeatherCatV1.02B3,2013-05-16 18:54:00,
2013-05-16 13:59:00,80.0,62.4,29.98,West,281,3.0,4.0,55,0.00,,,0.00,WeatherCatV1.02B3,2013-05-16 18:59:00,
2013-05-16 14:04:00,80.2,63.6,29.98,WNW,283,2.0,4.0,57,0.00,,,0.00,WeatherCatV1.02B3,2013-05-16 19:04:00,
2013-05-16 14:09:00,80.3,63.1,29.98,West,277,1.0,7.0,56,0.00,,,0.00,WeatherCatV1.02B3,2013-05-16 19:09:00,
2013-05-16 14:14:00,81.0,63.8,29.98,West,273,0.0,1.0,56,0.00,,,0.00,WeatherCatV1.02B3,2013-05-16 19:14:00,
2013-05-16 14:19:00,81.6,64.9,29.98,SW,232,4.0,4.0,57,0.00,,,0.00,WeatherCatV1.02B3,2013-05-16 19:19:00,
2013-05-16 14:24:00,81.4,63.1,29.98,WSW,250,0.0,5.0,54,0.00,,,0.00,WeatherCatV1.02B3,2013-05-16 19:24:00,
2013-05-16 14:29:00,81.0,62.8,29.99,West,261,2.0,5.0,54,0.00,,,0.00,WeatherCatV1.02B3,2013-05-16 19:29:00,
2013-05-16 14:34:00,80.7,63.0,29.99,WNW,300,3.0,5.0,55,0.00,,,0.00,WeatherCatV1.02B3,2013-05-16 19:34:00,
2013-05-16 14:39:00,80.6,63.9,29.99,West,260,0.0,2.0,57,0.00,,,0.00,WeatherCatV1.02B3,2013-05-16 19:39:00,
2013-05-16 14:44:00,80.9,65.2,29.98,WSW,239,4.0,4.0,59,0.00,,,0.00,WeatherCatV1.02B3,2013-05-16 19:44:00,
2013-05-16 14:49:00,81.3,65.1,29.98,WNW,286,3.0,3.0,58,0.00,,,0.00,WeatherCatV1.02B3,2013-05-16 19:49:00,
2013-05-16 14:54:00,81.4,65.2,29.97,West,272,2.0,7.0,58,0.00,,,0.00,WeatherCatV1.02B3,2013-05-16 19:54:00,
2013-05-16 14:59:00,81.5,65.3,29.97,West,272,0.0,1.0,58,0.00,,,0.00,WeatherCatV1.02B3,2013-05-16 19:59:00,
2013-05-16 15:04:00,81.7,64.4,29.97,West,270,3.0,5.0,56,0.00,,,0.00,WeatherCatV1.02B3,2013-05-16 20:04:00,
2013-05-16 15:09:00,82.1,65.3,29.97,WSW,252,3.0,3.0,57,0.00,,,0.00,WeatherCatV1.02B3,2013-05-16 20:09:00,
2013-05-16 15:14:00,82.1,64.8,29.96,WSW,244,6.0,7.0,56,0.00,,,0.00,WeatherCatV1.02B3,2013-05-16 20:14:00,
2013-05-16 15:19:00,81.9,64.1,29.96,West,275,4.0,6.0,55,0.00,,,0.00,WeatherCatV1.02B3,2013-05-16 20:19:00,
2013-05-16 15:24:00,81.5,64.3,29.96,West,277,0.0,5.0,56,0.00,,,0.00,WeatherCatV1.02B3,2013-05-16 20:24:00,
2013-05-16 15:29:00,80.9,63.7,29.96,WSW,246,2.0,3.0,56,0.00,,,0.00,WeatherCatV1.02B3,2013-05-16 20:29:00,
2013-05-16 15:34:00,80.4,64.7,29.96,SW,233,2.0,4.0,59,0.00,,,0.00,WeatherCatV1.02B3,2013-05-16 20:34:00,
2013-05-16 15:39:00,80.1,64.9,29.96,WSW,237,0.0,3.0,60,0.00,,,0.00,WeatherCatV1.02B3,2013-05-16 20:39:00,
2013-05-16 15:44:00,79.9,65.2,29.96,West,268,0.0,2.0,61,0.00,,,0.00,WeatherCatV1.02B3,2013-05-16 20:44:00,
2013-05-16 15:49:00,79.9,65.7,29.95,WSW,241,0.0,4.0,62,0.00,,,0.00,WeatherCatV1.02B3,2013-05-16 20:49:00,
2013-05-16 15:54:00,79.9,65.7,29.95,WSW,239,0.0,4.0,62,0.00,,,0.00,WeatherCatV1.02B3,2013-05-16 20:54:00,
2013-05-16 15:59:00,79.8,65.6,29.95,West,261,0.0,5.0,62,0.00,,,0.00,WeatherCatV1.02B3,2013-05-16 20:59:00,
2013-05-16 16:04:00,79.6,65.9,29.95,West,275,2.0,7.0,63,0.00,,,0.00,WeatherCatV1.02B3,2013-05-16 21:04:00,
2013-05-16 16:09:00,79.8,66.5,29.95,WSW,248,1.0,3.0,64,0.00,,,0.00,WeatherCatV1.02B3,2013-05-16 21:09:00,
2013-05-16 16:14:00,80.7,66.4,29.95,WSW,247,0.0,3.0,62,0.00,,,0.00,WeatherCatV1.02B3,2013-05-16 21:14:00,
2013-05-16 16:19:00,82.1,66.3,29.95,WSW,244,0.0,3.0,59,0.00,,,0.00,WeatherCatV1.02B3,2013-05-16 21:19:00,
2013-05-16 16:24:00,82.2,67.4,29.95,SW,232,1.0,6.0,61,0.00,,,0.00,WeatherCatV1.02B3,2013-05-16 21:24:00,
2013-05-16 16:29:00,82.0,67.2,29.95,West,267,1.0,4.0,61,0.00,,,0.00,WeatherCatV1.02B3,2013-05-16 21:29:00,
2013-05-16 16:34:00,81.4,66.2,29.95,WSW,255,2.0,5.0,60,0.00,,,0.00,WeatherCatV1.02B3,2013-05-16 21:34:00,
2013-05-16 16:39:00,80.9,66.2,29.95,WNW,285,0.0,4.0,61,0.00,,,0.00,WeatherCatV1.02B3,2013-05-16 21:39:00,
2013-05-16 16:44:00,80.2,65.5,29.95,WSW,240,3.0,5.0,61,0.00,,,0.00,WeatherCatV1.02B3,2013-05-16 21:44:00,
2013-05-16 16:49:00,79.5,65.3,29.95,West,274,3.0,6.0,62,0.00,,,0.00,WeatherCatV1.02B3,2013-05-16 21:49:00,
2013-05-16 16:54:00,78.9,65.7,29.95,WSW,249,1.0,6.0,64,0.00,,,0.00,WeatherCatV1.02B3,2013-05-16 21:54:00,
2013-05-16 16:59:00,78.4,65.2,29.95,WSW,246,1.0,1.0,64,0.00,,,0.00,WeatherCatV1.02B3,2013-05-16 21:59:00,
2013-05-16 17:04:00,78.3,65.5,29.95,WSW,258,1.0,3.0,65,0.00,,,0.00,WeatherCatV1.02B3,2013-05-16 22:04:00,
2013-05-16 17:09:00,78.2,65.4,29.95,WSW,257,0.0,5.0,65,0.00,,,0.00,WeatherCatV1.02B3,2013-05-16 22:09:00,
2013-05-16 17:14:00,78.1,65.8,29.95,SW,234,0.0,4.0,66,0.00,,,0.00,WeatherCatV1.02B3,2013-05-16 22:14:00,
2013-05-16 17:19:00,78.1,65.8,29.95,WSW,252,4.0,4.0,66,0.00,,,0.00,WeatherCatV1.02B3,2013-05-16 22:19:00,
2013-05-16 17:24:00,78.0,66.1,29.95,SW,233,0.0,7.0,67,0.00,,,0.00,WeatherCatV1.02B3,2013-05-16 22:24:00,
2013-05-16 17:29:00,78.3,66.4,29.95,West,270,0.0,2.0,67,0.00,,,0.00,WeatherCatV1.02B3,2013-05-16 22:29:00,
2013-05-16 17:34:00,78.8,66.9,29.95,West,261,1.0,2.0,67,0.00,,,0.00,WeatherCatV1.02B3,2013-05-16 22:34:00,
2013-05-16 17:39:00,78.9,66.1,29.94,West,275,0.0,2.0,65,0.00,,,0.00,WeatherCatV1.02B3,2013-05-16 22:39:00,
2013-05-16 17:44:00,78.9,66.1,29.93,SSW,198,1.0,1.0,65,0.00,,,0.00,WeatherCatV1.02B3,2013-05-16 22:44:00,
2013-05-16 17:49:00,78.8,65.6,29.93,West,267,0.0,4.0,64,0.00,,,0.00,WeatherCatV1.02B3,2013-05-16 22:49:00,
2013-05-16 17:54:00,78.5,65.3,29.94,WSW,247,1.0,8.0,64,0.00,,,0.00,WeatherCatV1.02B3,2013-05-16 22:54:00,
2013-05-16 17:59:00,78.2,65.0,29.94,WSW,242,1.0,4.0,64,0.00,,,0.00,WeatherCatV1.02B3,2013-05-16 22:59:00,
2013-05-16 18:04:00,77.9,65.6,29.94,WSW,244,0.0,1.0,66,0.00,,,0.00,WeatherCatV1.02B3,2013-05-16 23:04:00,
2013-05-16 18:09:00,77.7,65.8,29.94,West,263,0.0,1.0,67,0.00,,,0.00,WeatherCatV1.02B3,2013-05-16 23:09:00,
2013-05-16 18:14:00,77.5,65.7,29.94,East,80,0.0,1.0,67,0.00,,,0.00,WeatherCatV1.02B3,2013-05-16 23:14:00,
2013-05-16 18:19:00,77.4,65.6,29.94,East,81,0.0,1.0,67,0.00,,,0.00,WeatherCatV1.02B3,2013-05-16 23:19:00,
2013-05-16 18:24:00,77.2,65.4,29.94,WSW,240,0.0,4.0,67,0.00,,,0.00,WeatherCatV1.02B3,2013-05-16 23:24:00,
2013-05-16 18:29:00,77.0,65.6,29.94,WSW,240,0.0,1.0,68,0.00,,,0.00,WeatherCatV1.02B3,2013-05-16 23:29:00,
2013-05-16 18:34:00,76.9,65.5,29.94,WSW,240,0.0,3.0,68,0.00,,,0.00,WeatherCatV1.02B3,2013-05-16 23:34:00,
2013-05-16 18:39:00,76.7,65.7,29.94,WSW,240,0.0,1.0,69,0.00,,,0.00,WeatherCatV1.02B3,2013-05-16 23:39:00,
2013-05-16 18:44:00,76.6,65.6,29.94,WSW,240,0.0,1.0,69,0.00,,,0.00,WeatherCatV1.02B3,2013-05-16 23:44:00,
2013-05-16 18:49:00,76.5,65.6,29.94,WSW,240,0.0,0.0,69,0.00,,,0.00,WeatherCatV1.02B3,2013-05-16 23:49:00,
2013-05-16 18:54:00,76.4,65.9,29.94,WSW,240,3.0,3.0,70,0.00,,,0.00,WeatherCatV1.02B3,2013-05-16 23:54:00,
2013-05-16 18:59:00,76.2,65.7,29.94,WSW,240,0.0,1.0,70,0.00,,,0.00,WeatherCatV1.02B3,2013-05-16 23:59:00,
2013-05-16 19:04:00,76.0,65.9,29.94,WSW,240,0.0,0.0,71,0.00,,,0.00,WeatherCatV1.02B3,2013-05-17 00:04:00,
2013-05-16 19:09:00,75.8,65.7,29.94,WSW,246,0.0,3.0,71,0.00,,,0.00,WeatherCatV1.02B3,2013-05-17 00:09:00,
2013-05-16 19:14:00,75.7,65.6,29.94,WSW,244,0.0,3.0,71,0.00,,,0.00,WeatherCatV1.02B3,2013-05-17 00:14:00,
2013-05-16 19:19:00,75.5,65.8,29.94,WSW,244,0.0,0.0,72,0.00,,,0.00,WeatherCatV1.02B3,2013-05-17 00:19:00,
2013-05-16 19:24:00,75.4,66.1,29.94,WSW,244,0.0,1.0,73,0.00,,,0.00,WeatherCatV1.02B3,2013-05-17 00:24:00,
2013-05-16 19:29:00,75.2,66.3,29.94,WSW,244,0.0,1.0,74,0.00,,,0.00,WeatherCatV1.02B3,2013-05-17 00:29:00,
2013-05-16 19:34:00,75.0,66.1,29.94,WSW,244,0.0,0.0,74,0.00,,,0.00,WeatherCatV1.02B3,2013-05-17 00:34:00,
2013-05-16 19:39:00,74.8,66.3,29.94,WSW,244,0.0,1.0,75,0.00,,,0.00,WeatherCatV1.02B3,2013-05-17 00:39:00,
2013-05-16 19:44:00,74.6,66.5,29.94,WSW,244,0.0,0.0,76,0.00,,,0.00,WeatherCatV1.02B3,2013-05-17 00:44:00,
2013-05-16 19:49:00,74.3,66.2,29.93,WSW,244,0.0,2.0,76,0.00,,,0.00,WeatherCatV1.02B3,2013-05-17 00:49:00,
2013-05-16 19:54:00,74.1,66.4,29.92,WSW,244,0.0,0.0,77,0.00,,,0.00,WeatherCatV1.02B3,2013-05-17 00:54:00,
2013-05-16 19:59:00,73.8,66.1,29.92,WSW,244,0.0,3.0,77,0.00,,,0.00,WeatherCatV1.02B3,2013-05-17 00:59:00,
2013-05-16 20:04:00,73.6,66.3,29.91,WSW,244,0.0,0.0,78,0.00,,,0.00,WeatherCatV1.02B3,2013-05-17 01:04:00,
2013-05-16 20:09:00,73.4,66.1,29.92,WSW,244,0.0,3.0,78,0.00,,,0.00,WeatherCatV1.02B3,2013-05-17 01:09:00,
2013-05-16 20:14:00,73.3,66.4,29.91,WSW,244,0.0,1.0,79,0.00,,,0.00,WeatherCatV1.02B3,2013-05-17 01:14:00,
2013-05-16 20:19:00,73.1,66.2,29.91,WSW,251,0.0,1.0,79,0.00,,,0.00,WeatherCatV1.02B3,2013-05-17 01:19:00,
2013-05-16 20:24:00,73.0,66.5,29.91,WSW,250,0.0,3.0,80,0.00,,,0.00,WeatherCatV1.02B3,2013-05-17 01:24:00,
2013-05-16 20:29:00,72.9,66.4,29.91,WSW,246,5.0,7.0,80,0.00,,,0.00,WeatherCatV1.02B3,2013-05-17 01:29:00,
2013-05-16 20:34:00,72.7,66.2,29.91,WSW,238,2.0,2.0,80,0.00,,,0.00,WeatherCatV1.02B3,2013-05-17 01:34:00,
2013-05-16 20:39:00,72.6,66.1,29.91,WSW,244,2.0,4.0,80,0.00,,,0.00,WeatherCatV1.02B3,2013-05-17 01:39:00,
2013-05-16 20:44:00,72.5,66.0,29.92,West,265,0.0,1.0,80,0.00,,,0.00,WeatherCatV1.02B3,2013-05-17 01:44:00,
2013-05-16 20:49:00,72.4,65.9,29.92,WSW,242,1.0,3.0,80,0.00,,,0.00,WeatherCatV1.02B3,2013-05-17 01:49:00,
2013-05-16 20:54:00,72.4,65.9,29.92,WSW,237,0.0,5.0,80,0.00,,,0.00,WeatherCatV1.02B3,2013-05-17 01:54:00,
2013-05-16 20:59:00,72.4,65.9,29.92,WSW,239,0.0,3.0,80,0.00,,,0.00,WeatherCatV1.02B3,2013-05-17 01:59:00,
2013-05-16 21:04:00,72.5,65.6,29.92,West,272,2.0,3.0,79,0.00,,,0.00,WeatherCatV1.02B3,2013-05-17 02:04:00,
2013-05-16 21:09:00,72.5,65.6,29.92,WSW,249,0.0,4.0,79,0.00,,,0.00,WeatherCatV1.02B3,2013-05-17 02:09:00,
2013-05-16 21:14:00,72.6,65.7,29.92,WNW,290,0.0,0.0,79,0.00,,,0.00,WeatherCatV1.02B3,2013-05-17 02:14:00,
2013-05-16 21:19:00,72.6,65.7,29.93,West,271,0.0,2.0,79,0.00,,,0.00,WeatherCatV1.02B3,2013-05-17 02:19:00,
2013-05-16 21:24:00,72.7,65.8,29.93,West,259,1.0,2.0,79,0.00,,,0.00,WeatherCatV1.02B3,2013-05-17 02:24:00,
2013-05-16 21:29:00,72.8,65.9,29.94,North,0,5.0,5.0,79,0.00,,,0.00,WeatherCatV1.02B3,2013-05-17 02:29:00,
2013-05-16 21:34:00,72.8,65.9,29.95,WSW,258,0.0,2.0,79,0.00,,,0.00,WeatherCatV1.02B3,2013-05-17 02:34:00,
2013-05-16 21:39:00,72.9,66.0,29.95,West,272,1.0,7.0,79,0.00,,,0.00,WeatherCatV1.02B3,2013-05-17 02:39:00,
2013-05-16 21:44:00,72.8,66.3,29.95,WNW,282,0.0,2.0,80,0.00,,,0.00,WeatherCatV1.02B3,2013-05-17 02:44:00,
2013-05-16 21:49:00,72.8,66.3,29.95,WSW,239,1.0,7.0,80,0.00,,,0.00,WeatherCatV1.02B3,2013-05-17 02:49:00,
2013-05-16 21:54:00,72.7,66.2,29.95,WSW,248,3.0,3.0,80,0.00,,,0.00,WeatherCatV1.02B3,2013-05-17 02:54:00,
2013-05-16 21:59:00,72.6,66.4,29.96,SW,234,1.0,5.0,81,0.00,,,0.00,WeatherCatV1.02B3,2013-05-17 02:59:00,
2013-05-16 22:04:00,72.5,66.3,29.96,WSW,239,0.0,0.0,81,0.00,,,0.00,WeatherCatV1.02B3,2013-05-17 03:04:00,
2013-05-16 22:09:00,72.4,66.2,29.96,WSW,252,1.0,5.0,81,0.00,,,0.00,WeatherCatV1.02B3,2013-05-17 03:09:00,
2013-05-16 22:14:00,72.3,66.5,29.96,SW,235,3.0,4.0,82,0.00,,,0.00,WeatherCatV1.02B3,2013-05-17 03:14:00,
2013-05-16 22:19:00,72.2,66.4,29.97,West,259,0.0,3.0,82,0.00,,,0.00,WeatherCatV1.02B3,2013-05-17 03:19:00,
2013-05-16 22:24:00,72.2,66.4,29.97,West,268,2.0,4.0,82,0.00,,,0.00,WeatherCatV1.02B3,2013-05-17 03:24:00,
2013-05-16 22:29:00,72.2,66.4,29.97,SW,230,1.0,6.0,82,0.00,,,0.00,WeatherCatV1.02B3,2013-05-17 03:29:00,
2013-05-16 22:34:00,72.1,66.6,29.97,WSW,252,0.0,2.0,83,0.00,,,0.00,WeatherCatV1.02B3,2013-05-17 03:34:00,
2013-05-16 22:39:00,72.1,66.6,29.97,WSW,250,1.0,7.0,83,0.00,,,0.00,WeatherCatV1.02B3,2013-05-17 03:39:00,
2013-05-16 22:44:00,72.0,66.5,29.97,SW,235,0.0,5.0,83,0.00,,,0.00,WeatherCatV1.02B3,2013-05-17 03:44:00,
2013-05-16 22:49:00,71.9,66.4,29.97,WSW,250,2.0,4.0,83,0.00,,,0.00,WeatherCatV1.02B3,2013-05-17 03:49:00,
2013-05-16 22:54:00,71.8,66.3,29.97,WSW,244,0.0,4.0,83,0.00,,,0.00,WeatherCatV1.02B3,2013-05-17 03:54:00,
2013-05-16 22:59:00,71.7,66.6,29.97,West,263,0.0,3.0,84,0.00,,,0.00,WeatherCatV1.02B3,2013-05-17 03:59:00,
2013-05-16 23:01:00,71.7,66.6,29.97,West,263,1.0,1.0,84,0.00,,,0.00,WeatherCatV1.02B3,2013-05-17 04:01:00,
2013-05-16 23:06:00,71.7,66.6,29.97,WSW,241,0.0,2.0,84,0.00,,,0.00,WeatherCatV1.02B3,2013-05-17 04:06:00,
2013-05-16 23:11:00,71.6,66.5,29.97,WNW,286,0.0,2.0,84,0.00,,,0.00,WeatherCatV1.02B3,2013-05-17 04:11:00,
2013-05-16 23:16:00,71.5,66.7,29.97,West,269,1.0,6.0,85,0.00,,,0.00,WeatherCatV1.02B3,2013-05-17 04:16:00,
2013-05-16 23:21:00,71.5,66.7,29.97,West,267,1.0,2.0,85,0.00,,,0.00,WeatherCatV1.02B3,2013-05-17 04:21:00,
2013-05-16 23:26:00,71.5,66.7,29.97,WSW,253,0.0,3.0,85,0.00,,,0.00,WeatherCatV1.02B3,2013-05-17 04:26:00,
2013-05-16 23:31:00,71.5,66.7,29.97,WSW,246,0.0,1.0,85,0.00,,,0.00,WeatherCatV1.02B3,2013-05-17 04:31:00,
2013-05-16 23:36:00,71.4,67.0,29.97,WSW,237,3.0,4.0,86,0.00,,,0.00,WeatherCatV1.02B3,2013-05-17 04:36:00,
2013-05-16 23:41:00,71.3,66.9,29.97,SW,231,2.0,6.0,86,0.00,,,0.00,WeatherCatV1.02B3,2013-05-17 04:41:00,
2013-05-16 23:46:00,71.3,66.9,29.97,WSW,240,2.0,4.0,86,0.00,,,0.00,WeatherCatV1.02B3,2013-05-17 04:46:00,
2013-05-16 23:51:00,71.3,66.9,29.97,WSW,240,6.0,6.0,86,0.00,,,0.00,WeatherCatV1.02B3,2013-05-17 04:51:00,
2013-05-16 23:56:00,71.3,67.2,29.97,WSW,239,0.0,1.0,87,0.00,,,0.00,WeatherCatV1.02B3,2013-05-17 04:56:00,